Overview Statistics Trail Chart Weather Telemetry Raw packets
 

This is the latest recevied weather packets stored in our database for station/object CT4TX-11. If no packets are shown the sender has not sent any weather packets the latest 10 day(s).

<< 6 7 8 9 10 11 12 >>
Time Temp. Humidity Pressure Rain* Wind** Luminosity Snow
1788448880 31.67° C 39% 1006.6 hPa - - - -
1788447980 32.22° C 39% 1006.7 hPa - - - -
1788447080 32.22° C 39% 1006.8 hPa - - - -
1788446180 31.67° C 39% 1006.9 hPa - - - -
1788445280 31.67° C 39% 1007.1 hPa - - - -
1788444379 31.67° C 39% 1006.9 hPa - - - -
1788443479 31.67° C 39% 1007.5 hPa - - - -
1788442579 31.67° C 39% 1007.5 hPa - - - -
1788441678 31.67° C 39% 1007.5 hPa - - - -
1788440778 31.67° C 40% 1007.5 hPa - - - -
1788439878 31.67° C 39% 1007.6 hPa - - - -
1788438978 31.67° C 39% 1007.7 hPa - - - -
1788438078 32.22° C 40% 1007.8 hPa - - - -
1788437177 32.22° C 41% 1007.7 hPa - - - -
1788436277 32.78° C 41% 1007.8 hPa - - - -
1788435376 32.22° C 40% 1007.8 hPa - - - -
1788434476 32.78° C 40% 1007.8 hPa - - - -
1788433576 32.22° C 41% 1008.1 hPa - - - -
1788432676 32.22° C 40% 1008 hPa - - - -
1788431775 32.22° C 40% 1008 hPa - - - -
1788430875 32.22° C 40% 1008.1 hPa - - - -
1788429974 31.11° C 42% 1008 hPa - - - -
1788429078 30.56° C 43% 1007.9 hPa - - - -
1788428178 30° C 42% 1007.9 hPa - - - -
1788427278 30° C 42% 1007.8 hPa - - - -

* Rain since midnight (hover to see other rain measurements)
** Current wind speed in m/s (hover to see current wind gust speed)